Time,TemperatureF,DewpointF,PressureIn,WindDirection,WindDirectionDegrees,WindSpeedMPH,WindSpeedGustMPH,Humidity,HourlyPrecipIn,Conditions,Clouds,dailyrainin,SoftwareType,DateUTC
2013-04-15 00:04:00,47.6,43.3,29.85,WSW,254,0.0,5.7,85,0.00,,BKN027,0.00,VWS V14.01,2013-04-15 07:04:00,
2013-04-15 00:41:00,45.5,42.2,29.86,East,86,0.0,3.8,88,0.00,,SCT025,0.00,VWS V14.01,2013-04-15 07:41:00,
2013-04-15 00:42:00,45.4,42.1,29.86,East,86,0.0,3.8,88,0.00,,SCT025,0.00,VWS V14.01,2013-04-15 07:42:00,
2013-04-15 00:44:00,45.3,42.0,29.86,South,174,1.9,3.8,88,0.00,,SCT025,0.00,VWS V14.01,2013-04-15 07:44:00,
2013-04-15 00:47:00,45.2,41.9,29.86,South,186,0.0,3.8,88,0.00,,SCT025,0.00,VWS V14.01,2013-04-15 07:47:00,
2013-04-15 00:48:00,45.1,41.8,29.86,West,273,1.9,3.8,88,0.00,,SCT025,0.00,VWS V14.01,2013-04-15 07:48:00,
2013-04-15 00:50:00,45.0,41.7,29.86,West,273,0.0,3.8,88,0.00,,SCT025,0.00,VWS V14.01,2013-04-15 07:50:00,
2013-04-15 00:51:00,45.0,41.7,29.86,West,273,0.0,3.8,88,0.00,,SCT025,0.00,VWS V14.01,2013-04-15 07:51:00,
2013-04-15 00:52:00,44.9,41.9,29.86,West,272,0.0,3.8,89,0.00,,SCT025,0.00,VWS V14.01,2013-04-15 07:52:00,
2013-04-15 00:57:00,44.7,41.7,29.86,West,273,0.0,3.8,89,0.00,,SCT025,0.00,VWS V14.01,2013-04-15 07:57:00,
2013-04-15 01:03:00,44.4,41.4,29.86,SSE,166,0.0,3.8,89,0.00,,CLR,0.00,VWS V14.01,2013-04-15 08:03:00,
2013-04-15 01:09:00,44.2,41.5,29.87,WSW,253,1.9,3.8,90,0.00,,CLR,0.00,VWS V14.01,2013-04-15 08:09:00,
2013-04-15 01:14:00,44.2,41.5,29.86,SW,233,0.0,3.8,90,0.00,,CLR,0.00,VWS V14.01,2013-04-15 08:14:00,
2013-04-15 01:19:00,44.2,41.7,29.86,SSW,204,0.0,3.8,91,0.00,,CLR,0.00,VWS V14.01,2013-04-15 08:19:00,
2013-04-15 01:24:00,44.0,41.3,29.87,SSW,204,0.0,3.8,90,0.00,,CLR,0.00,VWS V14.01,2013-04-15 08:24:00,
2013-04-15 01:29:00,43.7,41.0,29.87,SSW,204,0.0,3.8,90,0.00,,CLR,0.00,VWS V14.01,2013-04-15 08:29:00,
2013-04-15 01:35:00,43.4,41.0,29.87,SSW,203,0.0,0.0,91,0.00,,CLR,0.00,VWS V14.01,2013-04-15 08:35:00,
2013-04-15 01:40:00,43.4,41.0,29.87,SSW,205,0.0,1.9,91,0.00,,CLR,0.00,VWS V14.01,2013-04-15 08:40:00,
2013-04-15 01:41:00,43.3,40.8,29.86,SSW,205,0.0,1.9,91,0.00,,CLR,0.00,VWS V14.01,2013-04-15 08:41:00,
2013-04-15 01:42:00,43.3,40.8,29.86,SSW,205,0.0,1.9,91,0.00,,CLR,0.00,VWS V14.01,2013-04-15 08:42:00,
2013-04-15 01:43:00,43.3,40.8,29.86,SSW,205,0.0,1.9,91,0.00,,CLR,0.00,VWS V14.01,2013-04-15 08:43:00,
2013-04-15 01:48:00,43.2,41.0,29.86,SSW,205,0.0,1.9,92,0.00,,CLR,0.00,VWS V14.01,2013-04-15 08:48:00,
2013-04-15 01:53:00,43.1,40.7,29.86,SSW,205,0.0,1.9,91,0.00,,CLR,0.00,VWS V14.01,2013-04-15 08:53:00,
2013-04-15 01:58:00,42.8,40.6,29.86,SSW,205,0.0,1.9,92,0.00,,CLR,0.00,VWS V14.01,2013-04-15 08:58:00,
2013-04-15 02:03:00,42.6,40.4,29.86,SSW,205,0.0,0.0,92,0.00,,CLR,0.00,VWS V14.01,2013-04-15 09:03:00,
2013-04-15 02:09:00,42.7,40.8,29.86,SSW,205,0.0,0.0,93,0.00,,CLR,0.00,VWS V14.01,2013-04-15 09:09:00,
2013-04-15 02:14:00,42.5,40.3,29.86,SSW,205,0.0,0.0,92,0.00,,CLR,0.00,VWS V14.01,2013-04-15 09:14:00,
2013-04-15 02:19:00,42.4,40.2,29.87,SSW,205,0.0,0.0,92,0.00,,CLR,0.00,VWS V14.01,2013-04-15 09:19:00,
2013-04-15 02:28:00,41.9,39.8,29.87,SSW,205,0.0,0.0,92,0.00,,CLR,0.00,VWS V14.01,2013-04-15 09:28:00,
2013-04-15 02:33:00,42.0,40.1,29.86,SSW,205,0.0,0.0,93,0.00,,CLR,0.00,VWS V14.01,2013-04-15 09:33:00,
2013-04-15 02:38:00,41.7,39.5,29.87,SSW,205,0.0,0.0,92,0.00,,CLR,0.00,VWS V14.01,2013-04-15 09:38:00,
2013-04-15 02:43:00,41.4,39.2,29.87,SSW,205,0.0,0.0,92,0.00,,CLR,0.00,VWS V14.01,2013-04-15 09:43:00,
2013-04-15 02:48:00,41.1,39.0,29.87,SSW,205,0.0,0.0,92,0.00,,CLR,0.00,VWS V14.01,2013-04-15 09:48:00,
2013-04-15 02:53:00,41.1,39.2,29.86,SSW,205,0.0,0.0,93,0.00,,CLR,0.00,VWS V14.01,2013-04-15 09:53:00,
2013-04-15 02:58:00,40.9,39.0,29.86,SSW,205,0.0,0.0,93,0.00,,CLR,0.00,VWS V14.01,2013-04-15 09:58:00,
2013-04-15 03:03:00,40.8,38.9,29.86,SSW,205,0.0,0.0,93,0.00,,CLR,0.00,VWS V14.01,2013-04-15 10:03:00,
2013-04-15 03:08:00,41.1,39.2,29.86,SSW,205,0.0,0.0,93,0.00,,CLR,0.00,VWS V14.01,2013-04-15 10:08:00,
2013-04-15 03:13:00,41.0,39.1,29.86,SSW,205,0.0,0.0,93,0.00,,CLR,0.00,VWS V14.01,2013-04-15 10:13:00,
2013-04-15 03:19:00,41.2,39.3,29.87,SSW,205,0.0,0.0,93,0.00,,CLR,0.00,VWS V14.01,2013-04-15 10:19:00,
2013-04-15 03:24:00,41.3,39.4,29.87,SSW,205,0.0,0.0,93,0.00,,CLR,0.00,VWS V14.01,2013-04-15 10:24:00,
2013-04-15 03:29:00,41.3,39.7,29.87,SSW,205,0.0,0.0,94,0.00,,CLR,0.00,VWS V14.01,2013-04-15 10:29:00,
2013-04-15 03:34:00,41.4,39.8,29.86,South,191,0.0,0.0,94,0.00,,CLR,0.00,VWS V14.01,2013-04-15 10:34:00,
2013-04-15 03:39:00,41.3,39.4,29.86,South,190,0.0,0.0,93,0.00,,CLR,0.00,VWS V14.01,2013-04-15 10:39:00,
2013-04-15 03:44:00,41.0,39.1,29.86,South,190,0.0,0.0,93,0.00,,CLR,0.00,VWS V14.01,2013-04-15 10:44:00,
2013-04-15 03:49:00,41.0,39.4,29.87,South,191,0.0,0.0,94,0.00,,CLR,0.00,VWS V14.01,2013-04-15 10:49:00,
2013-04-15 03:54:00,40.8,39.2,29.86,South,191,0.0,0.0,94,0.00,,CLR,0.00,VWS V14.01,2013-04-15 10:54:00,
2013-04-15 03:59:00,40.7,39.1,29.86,SSW,192,0.0,0.0,94,0.00,,CLR,0.00,VWS V14.01,2013-04-15 10:59:00,
2013-04-15 04:04:00,40.6,39.0,29.87,South,190,0.0,0.0,94,0.00,,CLR,0.00,VWS V14.01,2013-04-15 11:04:00,
2013-04-15 04:10:00,40.5,38.9,29.87,South,190,0.0,0.0,94,0.00,,CLR,0.00,VWS V14.01,2013-04-15 11:10:00,
2013-04-15 04:15:00,40.4,38.8,29.87,South,190,0.0,0.0,94,0.00,,CLR,0.00,VWS V14.01,2013-04-15 11:15:00,
2013-04-15 04:21:00,40.1,38.5,29.87,South,191,0.0,0.0,94,0.00,,CLR,0.00,VWS V14.01,2013-04-15 11:21:00,
2013-04-15 04:26:00,40.0,38.4,29.87,South,191,0.0,0.0,94,0.00,,CLR,0.00,VWS V14.01,2013-04-15 11:26:00,
2013-04-15 04:31:00,40.1,38.5,29.87,SE,124,0.0,1.9,94,0.00,,CLR,0.00,VWS V14.01,2013-04-15 11:31:00,
2013-04-15 04:36:00,40.3,38.7,29.87,SE,124,0.0,1.9,94,0.00,,CLR,0.00,VWS V14.01,2013-04-15 11:36:00,
2013-04-15 04:41:00,40.1,38.5,29.87,SE,124,0.0,1.9,94,0.00,,CLR,0.00,VWS V14.01,2013-04-15 11:41:00,
2013-04-15 04:47:00,40.0,38.4,29.87,SE,124,0.0,1.9,94,0.00,,CLR,0.00,VWS V14.01,2013-04-15 11:47:00,
2013-04-15 04:52:00,39.9,38.3,29.87,SE,124,0.0,1.9,94,0.00,,CLR,0.00,VWS V14.01,2013-04-15 11:52:00,
2013-04-15 04:57:00,40.0,38.4,29.87,SE,124,0.0,1.9,94,0.00,,CLR,0.00,VWS V14.01,2013-04-15 11:57:00,
2013-04-15 05:02:00,39.9,38.3,29.87,SE,124,0.0,0.0,94,0.00,,CLR,0.00,VWS V14.01,2013-04-15 12:02:00,
2013-04-15 05:08:00,39.7,38.1,29.87,SE,124,0.0,0.0,94,0.00,,FEW026,0.00,VWS V14.01,2013-04-15 12:08:00,
2013-04-15 05:13:00,39.6,38.0,29.87,SE,125,0.0,1.9,94,0.00,,FEW026,0.00,VWS V14.01,2013-04-15 12:13:00,
2013-04-15 05:19:00,39.8,38.2,29.87,SE,124,0.0,1.9,94,0.00,,FEW026,0.00,VWS V14.01,2013-04-15 12:19:00,
2013-04-15 05:24:00,40.1,38.5,29.87,ESE,117,0.0,1.9,94,0.00,,FEW026,0.00,VWS V14.01,2013-04-15 12:24:00,
2013-04-15 05:29:00,40.1,38.5,29.87,ESE,117,0.0,1.9,94,0.00,,FEW026,0.00,VWS V14.01,2013-04-15 12:29:00,
2013-04-15 05:35:00,39.8,38.2,29.87,ESE,117,0.0,0.0,94,0.00,,FEW026,0.00,VWS V14.01,2013-04-15 12:35:00,
2013-04-15 05:40:00,39.8,38.2,29.87,ESE,117,0.0,1.9,94,0.00,,FEW026,0.00,VWS V14.01,2013-04-15 12:40:00,
2013-04-15 05:45:00,39.9,38.3,29.87,ESE,117,0.0,1.9,94,0.00,,FEW026,0.00,VWS V14.01,2013-04-15 12:45:00,
2013-04-15 05:51:00,39.9,38.3,29.87,ESE,117,0.0,1.9,94,0.00,,FEW026,0.00,VWS V14.01,2013-04-15 12:51:00,
2013-04-15 05:56:00,39.8,38.2,29.88,ESE,117,0.0,1.9,94,0.00,,FEW026,0.00,VWS V14.01,2013-04-15 12:56:00,
2013-04-15 06:01:00,39.7,38.1,29.88,ESE,117,0.0,0.0,94,0.00,,FEW026,0.00,VWS V14.01,2013-04-15 13:01:00,
2013-04-15 06:07:00,39.7,38.1,29.88,ESE,117,0.0,1.9,94,0.00,,CLR,0.00,VWS V14.01,2013-04-15 13:07:00,
2013-04-15 06:13:00,39.8,38.2,29.88,ESE,117,0.0,1.9,94,0.00,,CLR,0.00,VWS V14.01,2013-04-15 13:13:00,
2013-04-15 06:18:00,39.6,38.0,29.88,ESE,117,0.0,1.9,94,0.00,,CLR,0.00,VWS V14.01,2013-04-15 13:18:00,
2013-04-15 06:23:00,39.3,37.7,29.88,ESE,117,0.0,1.9,94,0.00,,CLR,0.00,VWS V14.01,2013-04-15 13:23:00,
2013-04-15 06:28:00,39.1,37.5,29.89,ESE,117,0.0,1.9,94,0.00,,CLR,0.00,VWS V14.01,2013-04-15 13:28:00,
2013-04-15 06:33:00,38.9,37.3,29.89,ESE,117,0.0,1.9,94,0.00,,CLR,0.00,VWS V14.01,2013-04-15 13:33:00,
2013-04-15 06:39:00,38.9,37.3,29.89,ESE,117,0.0,1.9,94,0.00,,CLR,0.00,VWS V14.01,2013-04-15 13:39:00,
2013-04-15 06:44:00,38.8,37.2,29.89,ESE,117,0.0,1.9,94,0.00,,CLR,0.00,VWS V14.01,2013-04-15 13:44:00,
2013-04-15 06:49:00,38.7,37.1,29.90,East,99,1.9,1.9,94,0.00,,CLR,0.00,VWS V14.01,2013-04-15 13:49:00,
2013-04-15 06:54:00,38.9,37.3,29.90,NNW,327,0.0,3.8,94,0.00,,CLR,0.00,VWS V14.01,2013-04-15 13:54:00,
2013-04-15 06:59:00,39.1,37.5,29.90,NNW,328,0.0,3.8,94,0.00,,CLR,0.00,VWS V14.01,2013-04-15 13:59:00,
2013-04-15 07:05:00,39.3,37.7,29.90,NNW,327,0.0,0.0,94,0.00,,CLR,0.00,VWS V14.01,2013-04-15 14:05:00,
2013-04-15 07:10:00,39.5,37.9,29.91,NNW,328,0.0,0.0,94,0.00,,CLR,0.00,VWS V14.01,2013-04-15 14:10:00,
2013-04-15 07:15:00,39.8,38.2,29.91,NNW,327,0.0,0.0,94,0.00,,CLR,0.00,VWS V14.01,2013-04-15 14:15:00,
2013-04-15 07:20:00,40.1,38.5,29.91,ESE,121,0.0,1.9,94,0.00,,CLR,0.00,VWS V14.01,2013-04-15 14:20:00,
2013-04-15 07:25:00,40.4,38.8,29.91,ESE,121,0.0,1.9,94,0.00,,CLR,0.00,VWS V14.01,2013-04-15 14:25:00,
2013-04-15 07:30:00,40.7,39.1,29.91,ESE,123,0.0,0.0,94,0.00,,CLR,0.00,VWS V14.01,2013-04-15 14:30:00,
2013-04-15 07:36:00,40.9,39.3,29.91,WSW,252,1.9,3.8,94,0.00,,CLR,0.00,VWS V14.01,2013-04-15 14:36:00,
2013-04-15 07:41:00,41.7,39.8,29.91,West,277,1.9,3.8,93,0.00,,CLR,0.00,VWS V14.01,2013-04-15 14:41:00,
2013-04-15 07:48:00,42.9,39.3,29.91,WNW,287,1.9,11.4,87,0.00,,CLR,0.00,VWS V14.01,2013-04-15 14:48:00,
2013-04-15 07:53:00,43.7,38.6,29.91,North,4,1.9,11.4,82,0.00,,CLR,0.00,VWS V14.01,2013-04-15 14:53:00,
2013-04-15 07:58:00,44.6,39.1,29.91,NNW,327,1.9,11.4,81,0.00,,CLR,0.00,VWS V14.01,2013-04-15 14:58:00,
2013-04-15 08:03:00,45.4,39.0,29.92,WSW,253,3.8,5.7,78,0.00,,CLR,0.00,VWS V14.01,2013-04-15 15:03:00,
2013-04-15 08:08:00,45.9,38.4,29.92,West,271,1.9,13.3,75,0.00,,CLR,0.00,VWS V14.01,2013-04-15 15:08:00,
2013-04-15 08:13:00,46.3,38.5,29.92,West,264,1.9,13.3,74,0.00,,CLR,0.00,VWS V14.01,2013-04-15 15:13:00,
2013-04-15 08:18:00,46.9,38.4,29.92,West,260,1.9,13.3,72,0.00,,CLR,0.00,VWS V14.01,2013-04-15 15:18:00,
2013-04-15 08:24:00,47.4,38.8,29.92,WNW,298,5.7,13.3,72,0.00,,CLR,0.00,VWS V14.01,2013-04-15 15:24:00,
2013-04-15 08:29:00,48.0,38.3,29.92,West,270,1.9,13.3,69,0.00,,CLR,0.00,VWS V14.01,2013-04-15 15:29:00,
2013-04-15 08:34:00,48.4,38.3,29.92,SW,224,3.8,15.2,68,0.00,,CLR,0.00,VWS V14.01,2013-04-15 15:34:00,
2013-04-15 08:39:00,48.3,37.5,29.92,West,279,3.8,15.2,66,0.00,,CLR,0.00,VWS V14.01,2013-04-15 15:39:00,
2013-04-15 08:44:00,48.2,37.4,29.92,SSE,160,0.0,15.2,66,0.00,,CLR,0.00,VWS V14.01,2013-04-15 15:44:00,
2013-04-15 08:49:00,48.3,37.9,29.92,WSW,237,9.5,15.2,67,0.00,,CLR,0.00,VWS V14.01,2013-04-15 15:49:00,
2013-04-15 08:54:00,48.6,37.0,29.91,West,281,1.9,22.8,64,0.00,,CLR,0.00,VWS V14.01,2013-04-15 15:54:00,
2013-04-15 08:59:00,48.9,37.3,29.91,NW,305,1.9,22.8,64,0.00,,CLR,0.00,VWS V14.01,2013-04-15 15:59:00,
2013-04-15 09:05:00,50.0,37.5,29.91,West,269,9.5,13.3,62,0.00,,CLR,0.00,VWS V14.01,2013-04-15 16:05:00,
2013-04-15 09:10:00,50.3,37.4,29.91,WNW,283,5.7,13.3,61,0.00,,CLR,0.00,VWS V14.01,2013-04-15 16:10:00,
2013-04-15 09:15:00,50.1,36.8,29.91,WNW,299,9.5,17.1,60,0.00,,CLR,0.00,VWS V14.01,2013-04-15 16:15:00,
2013-04-15 09:20:00,50.1,36.3,29.91,West,263,9.5,17.1,59,0.00,,CLR,0.00,VWS V14.01,2013-04-15 16:20:00,
2013-04-15 09:26:00,50.0,36.2,29.91,WSW,248,11.4,24.7,59,0.00,,CLR,0.00,VWS V14.01,2013-04-15 16:26:00,
2013-04-15 09:31:00,50.4,36.6,29.91,WNW,288,0.0,15.2,59,0.00,,CLR,0.00,VWS V14.01,2013-04-15 16:31:00,
2013-04-15 09:36:00,51.3,36.6,29.91,WNW,293,5.7,15.2,57,0.00,,CLR,0.00,VWS V14.01,2013-04-15 16:36:00,
2013-04-15 09:41:00,51.9,36.3,29.91,West,269,9.5,17.1,55,0.00,,CLR,0.00,VWS V14.01,2013-04-15 16:41:00,
2013-04-15 09:46:00,52.5,36.3,29.91,North,9,19.0,19.0,54,0.00,,CLR,0.00,VWS V14.01,2013-04-15 16:46:00,
2013-04-15 09:51:00,53.3,36.1,29.91,West,265,5.7,19.0,52,0.00,,CLR,0.00,VWS V14.01,2013-04-15 16:51:00,
2013-04-15 09:56:00,54.1,36.4,29.91,West,269,3.8,19.0,51,0.00,,CLR,0.00,VWS V14.01,2013-04-15 16:56:00,
2013-04-15 10:01:00,54.3,35.6,29.91,SW,233,1.9,19.0,49,0.00,,CLR,0.00,VWS V14.01,2013-04-15 17:01:00,
2013-04-15 10:07:00,54.4,35.7,29.91,NW,325,7.6,28.5,49,0.00,,SCT150,0.00,VWS V14.01,2013-04-15 17:07:00,
2013-04-15 10:12:00,54.7,36.4,29.91,NW,325,5.7,28.5,50,0.00,,SCT150,0.00,VWS V14.01,2013-04-15 17:12:00,
2013-04-15 10:17:00,54.7,35.4,29.91,WSW,252,1.9,28.5,48,0.00,,SCT150,0.00,VWS V14.01,2013-04-15 17:17:00,
2013-04-15 10:21:00,55.1,35.8,29.91,NNW,333,3.8,28.5,48,0.00,,SCT150,0.00,VWS V14.01,2013-04-15 17:21:00,
2013-04-15 10:23:00,55.3,35.4,29.91,North,11,19.0,28.5,47,0.00,,SCT150,0.00,VWS V14.01,2013-04-15 17:23:00,
2013-04-15 10:24:00,55.4,35.0,29.91,West,281,7.6,28.5,46,0.00,,SCT150,0.00,VWS V14.01,2013-04-15 17:24:00,
2013-04-15 10:25:00,55.4,34.4,29.91,SW,226,1.9,28.5,45,0.00,,SCT150,0.00,VWS V14.01,2013-04-15 17:25:00,
2013-04-15 10:32:00,55.4,34.4,29.91,NW,308,5.7,20.9,45,0.00,,SCT150,0.00,VWS V14.01,2013-04-15 17:32:00,
2013-04-15 10:33:00,55.4,34.4,29.91,WNW,295,3.8,20.9,45,0.00,,SCT150,0.00,VWS V14.01,2013-04-15 17:33:00,
2013-04-15 10:38:00,56.0,35.0,29.91,NNE,15,1.9,20.9,45,0.00,,SCT150,0.00,VWS V14.01,2013-04-15 17:38:00,
2013-04-15 10:43:00,56.0,33.8,29.91,WSW,252,5.7,24.7,43,0.00,,SCT150,0.00,VWS V14.01,2013-04-15 17:43:00,
2013-04-15 10:48:00,56.2,34.0,29.91,North,352,9.5,24.7,43,0.00,,SCT150,0.00,VWS V14.01,2013-04-15 17:48:00,
2013-04-15 10:53:00,56.6,33.8,29.91,WNW,288,5.7,26.6,42,0.00,,SCT150,0.00,VWS V14.01,2013-04-15 17:53:00,
2013-04-15 10:58:00,57.1,35.4,29.91,West,262,3.8,26.6,44,0.00,,SCT150,0.00,VWS V14.01,2013-04-15 17:58:00,
2013-04-15 11:03:00,57.4,34.5,29.90,WSW,254,5.7,17.1,42,0.00,,SCT050,0.00,VWS V14.01,2013-04-15 18:03:00,
2013-04-15 11:08:00,58.1,34.5,29.90,WNW,287,1.9,17.1,41,0.00,,SCT050,0.00,VWS V14.01,2013-04-15 18:08:00,
2013-04-15 11:14:00,58.6,35.0,29.90,WNW,296,11.4,19.0,41,0.00,,SCT050,0.00,VWS V14.01,2013-04-15 18:14:00,
2013-04-15 11:19:00,58.4,34.8,29.90,SW,225,11.4,19.0,41,0.00,,SCT050,0.00,VWS V14.01,2013-04-15 18:19:00,
2013-04-15 11:24:00,58.0,33.8,29.90,WSW,253,9.5,20.9,40,0.00,,SCT050,0.00,VWS V14.01,2013-04-15 18:24:00,
2013-04-15 11:29:00,58.4,35.4,29.90,West,264,5.7,20.9,42,0.00,,SCT050,0.00,VWS V14.01,2013-04-15 18:29:00,
2013-04-15 11:33:00,59.0,34.7,29.90,NNW,340,15.2,20.9,40,0.00,,SCT050,0.00,VWS V14.01,2013-04-15 18:33:00,
2013-04-15 11:35:00,58.8,33.9,29.90,NW,319,3.8,20.9,39,0.00,,SCT050,0.00,VWS V14.01,2013-04-15 18:35:00,
2013-04-15 11:37:00,58.9,34.0,29.90,West,269,7.6,20.9,39,0.00,,SCT050,0.00,VWS V14.01,2013-04-15 18:37:00,
2013-04-15 11:39:00,58.9,32.7,29.90,WNW,284,15.2,20.9,37,0.00,,SCT050,0.00,VWS V14.01,2013-04-15 18:39:00,
2013-04-15 11:45:00,59.0,33.5,29.90,West,263,3.8,20.9,38,0.00,,SCT050,0.00,VWS V14.01,2013-04-15 18:45:00,
2013-04-15 11:50:00,59.6,33.3,29.90,WNW,292,7.6,20.9,37,0.00,,SCT050,0.00,VWS V14.01,2013-04-15 18:50:00,
2013-04-15 11:55:00,60.1,33.1,29.90,NW,318,9.5,20.9,36,0.00,,SCT050,0.00,VWS V14.01,2013-04-15 18:55:00,
2013-04-15 12:00:00,59.7,32.7,29.90,NW,311,15.2,17.1,36,0.00,,SCT050,0.00,VWS V14.01,2013-04-15 19:00:00,
2013-04-15 12:05:00,59.9,34.2,29.89,NW,326,1.9,19.0,38,0.00,,SCT030,0.00,VWS V14.01,2013-04-15 19:05:00,
2013-04-15 12:10:00,60.1,33.1,29.89,West,274,15.2,24.7,36,0.00,,SCT030,0.00,VWS V14.01,2013-04-15 19:10:00,
2013-04-15 12:15:00,59.7,32.7,29.89,West,274,3.8,28.5,36,0.00,,SCT030,0.00,VWS V14.01,2013-04-15 19:15:00,
2013-04-15 12:20:00,59.9,30.8,29.89,WNW,298,5.7,28.5,33,0.00,,SCT030,0.00,VWS V14.01,2013-04-15 19:20:00,
2013-04-15 12:25:00,60.5,34.1,29.89,WNW,290,7.6,28.5,37,0.00,,SCT030,0.00,VWS V14.01,2013-04-15 19:25:00,
2013-04-15 12:30:00,60.6,33.5,29.89,NNE,32,7.6,15.2,36,0.00,,SCT030,0.00,VWS V14.01,2013-04-15 19:30:00,
2013-04-15 12:35:00,61.0,33.9,29.89,West,271,11.4,19.0,36,0.00,,SCT030,0.00,VWS V14.01,2013-04-15 19:35:00,
2013-04-15 12:42:00,61.2,34.1,29.88,North,4,3.8,20.9,36,0.00,,SCT030,0.00,VWS V14.01,2013-04-15 19:42:00,
2013-04-15 12:47:00,61.1,32.5,29.88,WNW,283,11.4,26.6,34,0.00,,SCT030,0.00,VWS V14.01,2013-04-15 19:47:00,
2013-04-15 12:52:00,60.6,32.1,29.88,WSW,251,13.3,28.5,34,0.00,,SCT030,0.00,VWS V14.01,2013-04-15 19:52:00,
2013-04-15 12:57:00,60.8,32.3,29.88,NW,323,11.4,28.5,34,0.00,,SCT030,0.00,VWS V14.01,2013-04-15 19:57:00,
2013-04-15 13:01:00,60.8,31.5,29.88,SW,218,7.6,28.5,33,0.00,,SCT030,0.00,VWS V14.01,2013-04-15 20:01:00,
2013-04-15 13:02:00,60.7,32.2,29.88,SW,230,5.7,28.5,34,0.00,,SCT060,0.00,VWS V14.01,2013-04-15 20:02:00,
2013-04-15 13:06:00,60.9,33.1,29.88,West,271,5.7,34.2,35,0.00,,SCT060,0.00,VWS V14.01,2013-04-15 20:06:00,
2013-04-15 13:07:00,60.9,32.4,29.88,West,278,13.3,34.2,34,0.00,,SCT060,0.00,VWS V14.01,2013-04-15 20:07:00,
2013-04-15 13:10:00,61.2,32.6,29.88,West,274,9.5,34.2,34,0.00,,SCT060,0.00,VWS V14.01,2013-04-15 20:10:00,
2013-04-15 13:12:00,61.2,32.6,29.88,ESE,102,5.7,34.2,34,0.00,,SCT060,0.00,VWS V14.01,2013-04-15 20:12:00,
2013-04-15 13:17:00,61.1,33.3,29.88,West,262,3.8,34.2,35,0.00,,SCT060,0.00,VWS V14.01,2013-04-15 20:17:00,
2013-04-15 13:22:00,61.5,32.9,29.88,WNW,300,9.5,34.2,34,0.00,,SCT060,0.00,VWS V14.01,2013-04-15 20:22:00,
2013-04-15 13:27:00,61.7,33.8,29.88,WNW,290,9.5,34.2,35,0.00,,SCT060,0.00,VWS V14.01,2013-04-15 20:27:00,
2013-04-15 13:32:00,62.0,32.6,29.88,WNW,303,7.6,22.8,33,0.00,,SCT060,0.00,VWS V14.01,2013-04-15 20:32:00,
2013-04-15 13:37:00,62.2,34.2,29.88,West,278,1.9,22.8,35,0.00,,SCT060,0.00,VWS V14.01,2013-04-15 20:37:00,
2013-04-15 13:42:00,62.3,32.9,29.87,SW,235,13.3,22.8,33,0.00,,SCT060,0.00,VWS V14.01,2013-04-15 20:42:00,
2013-04-15 13:47:00,62.6,33.1,29.87,WSW,255,3.8,22.8,33,0.00,,SCT060,0.00,VWS V14.01,2013-04-15 20:47:00,
2013-04-15 13:52:00,62.5,32.3,29.88,WNW,290,11.4,28.5,32,0.00,,SCT060,0.00,VWS V14.01,2013-04-15 20:52:00,
2013-04-15 13:57:00,62.3,32.9,29.87,West,276,9.5,28.5,33,0.00,,SCT060,0.00,VWS V14.01,2013-04-15 20:57:00,
2013-04-15 14:02:00,62.7,33.2,29.87,West,260,3.8,11.4,33,0.00,,SCT060,0.00,VWS V14.01,2013-04-15 21:02:00,
2013-04-15 14:07:00,62.1,31.1,29.87,NW,307,11.4,24.7,31,0.00,,SCT060,0.00,VWS V14.01,2013-04-15 21:07:00,
2013-04-15 14:12:00,62.0,31.8,29.87,SW,236,7.6,24.7,32,0.00,,SCT060,0.00,VWS V14.01,2013-04-15 21:12:00,
2013-04-15 14:17:00,62.0,31.8,29.87,West,276,9.5,28.5,32,0.00,,SCT060,0.00,VWS V14.01,2013-04-15 21:17:00,
2013-04-15 14:22:00,62.0,31.8,29.87,WSW,250,9.5,28.5,32,0.00,,SCT060,0.00,VWS V14.01,2013-04-15 21:22:00,
2013-04-15 14:27:00,61.8,31.6,29.86,WSW,250,9.5,28.5,32,0.00,,SCT060,0.00,VWS V14.01,2013-04-15 21:27:00,
2013-04-15 14:32:00,61.9,32.5,29.86,West,270,3.8,17.1,33,0.00,,SCT060,0.00,VWS V14.01,2013-04-15 21:32:00,
2013-04-15 14:37:00,62.8,34.0,29.86,West,269,7.6,20.9,34,0.00,,SCT060,0.00,VWS V14.01,2013-04-15 21:37:00,
2013-04-15 14:42:00,62.8,33.3,29.86,East,91,15.2,22.8,33,0.00,,SCT060,0.00,VWS V14.01,2013-04-15 21:42:00,
2013-04-15 14:47:00,62.6,32.3,29.86,WSW,257,19.0,22.8,32,0.00,,SCT060,0.00,VWS V14.01,2013-04-15 21:47:00,
2013-04-15 14:52:00,62.0,33.3,29.86,WSW,257,11.4,22.8,34,0.00,,SCT060,0.00,VWS V14.01,2013-04-15 21:52:00,
2013-04-15 14:57:00,61.6,34.4,29.86,West,263,5.7,24.7,36,0.00,,SCT060,0.00,VWS V14.01,2013-04-15 21:57:00,
2013-04-15 15:02:00,61.4,32.8,29.86,SW,218,7.6,32.3,34,0.00,,FEW065,0.00,VWS V14.01,2013-04-15 22:02:00,
2013-04-15 15:07:00,61.6,33.0,29.86,WNW,301,13.3,32.3,34,0.00,,FEW065,0.00,VWS V14.01,2013-04-15 22:07:00,
2013-04-15 15:12:00,61.8,32.4,29.87,West,262,13.3,32.3,33,0.00,,FEW065,0.00,VWS V14.01,2013-04-15 22:12:00,
2013-04-15 15:18:00,61.4,32.8,29.87,West,259,20.9,32.3,34,0.00,,FEW065,0.00,VWS V14.01,2013-04-15 22:18:00,
2013-04-15 15:23:00,61.3,32.7,29.87,WNW,287,13.3,32.3,34,0.00,,FEW065,0.00,VWS V14.01,2013-04-15 22:23:00,
2013-04-15 15:28:00,61.4,32.1,29.87,NW,311,11.4,32.3,33,0.00,,FEW065,0.00,VWS V14.01,2013-04-15 22:28:00,
2013-04-15 15:33:00,61.6,29.9,29.87,WSW,248,9.5,28.5,30,0.00,,FEW065,0.00,VWS V14.01,2013-04-15 22:33:00,
2013-04-15 15:38:00,61.1,31.8,29.87,North,350,5.7,28.5,33,0.00,,FEW065,0.00,VWS V14.01,2013-04-15 22:38:00,
2013-04-15 15:43:00,61.4,32.8,29.86,WNW,296,22.8,28.5,34,0.00,,FEW065,0.00,VWS V14.01,2013-04-15 22:43:00,
2013-04-15 15:48:00,61.8,33.2,29.86,West,272,7.6,28.5,34,0.00,,FEW065,0.00,VWS V14.01,2013-04-15 22:48:00,
2013-04-15 15:53:00,62.0,31.8,29.86,West,264,17.1,28.5,32,0.00,,FEW065,0.00,VWS V14.01,2013-04-15 22:53:00,
2013-04-15 15:58:00,61.3,32.0,29.85,NNW,327,9.5,28.5,33,0.00,,FEW065,0.00,VWS V14.01,2013-04-15 22:58:00,
2013-04-15 16:03:00,60.9,32.4,29.85,West,277,5.7,24.7,34,0.00,,SCT065,0.00,VWS V14.01,2013-04-15 23:03:00,
2013-04-15 16:08:00,60.9,31.6,29.85,NNW,330,11.4,24.7,33,0.00,,SCT065,0.00,VWS V14.01,2013-04-15 23:08:00,
2013-04-15 16:13:00,61.2,32.6,29.85,WNW,283,3.8,24.7,34,0.00,,SCT065,0.00,VWS V14.01,2013-04-15 23:13:00,
2013-04-15 16:18:00,61.1,33.3,29.85,SW,236,1.9,24.7,35,0.00,,SCT065,0.00,VWS V14.01,2013-04-15 23:18:00,
2013-04-15 16:23:00,61.2,32.6,29.86,West,276,9.5,30.4,34,0.00,,SCT065,0.00,VWS V14.01,2013-04-15 23:23:00,
2013-04-15 16:28:00,60.9,32.4,29.86,NW,306,19.0,30.4,34,0.00,,SCT065,0.00,VWS V14.01,2013-04-15 23:28:00,
2013-04-15 16:33:00,60.5,32.0,29.86,WSW,250,13.3,28.5,34,0.00,,SCT065,0.00,VWS V14.01,2013-04-15 23:33:00,
2013-04-15 16:38:00,59.8,32.8,29.86,WSW,252,13.3,28.5,36,0.00,,SCT065,0.00,VWS V14.01,2013-04-15 23:38:00,
2013-04-15 16:43:00,59.5,33.9,29.86,NNW,330,5.7,28.5,38,0.00,,SCT065,0.00,VWS V14.01,2013-04-15 23:43:00,
2013-04-15 16:48:00,59.4,32.5,29.85,West,263,7.6,28.5,36,0.00,,SCT065,0.00,VWS V14.01,2013-04-15 23:48:00,
2013-04-15 16:53:00,59.6,31.9,29.85,East,81,5.7,28.5,35,0.00,,SCT065,0.00,VWS V14.01,2013-04-15 23:53:00,
2013-04-15 16:59:00,59.5,31.9,29.85,NW,322,5.7,30.4,35,0.00,,SCT065,0.00,VWS V14.01,2013-04-15 23:59:00,
2013-04-15 17:04:00,59.2,30.1,29.85,WSW,252,17.1,30.4,33,0.00,,SCT040,0.00,VWS V14.01,2013-04-16 00:04:00,
2013-04-15 17:09:00,58.7,30.4,29.85,SE,136,5.7,30.4,34,0.00,,SCT040,0.00,VWS V14.01,2013-04-16 00:09:00,
2013-04-15 17:14:00,59.0,30.7,29.85,WSW,245,7.6,30.4,34,0.00,,SCT040,0.00,VWS V14.01,2013-04-16 00:14:00,
2013-04-15 17:19:00,58.8,31.2,29.86,WSW,249,5.7,34.2,35,0.00,,SCT040,0.00,VWS V14.01,2013-04-16 00:19:00,
2013-04-15 17:24:00,58.6,31.8,29.86,NNW,336,7.6,34.2,36,0.00,,SCT040,0.00,VWS V14.01,2013-04-16 00:24:00,
2013-04-15 17:29:00,58.3,31.5,29.86,NW,304,7.6,34.2,36,0.00,,SCT040,0.00,VWS V14.01,2013-04-16 00:29:00,
2013-04-15 17:34:00,58.2,32.1,29.86,WNW,290,19.0,30.4,37,0.00,,SCT040,0.00,VWS V14.01,2013-04-16 00:34:00,
2013-04-15 17:39:00,57.8,31.7,29.86,WSW,250,9.5,30.4,37,0.00,,SCT040,0.00,VWS V14.01,2013-04-16 00:39:00,
2013-04-15 17:44:00,57.7,31.0,29.86,WNW,285,7.6,36.1,36,0.00,,SCT040,0.00,VWS V14.01,2013-04-16 00:44:00,
2013-04-15 17:49:00,57.7,31.6,29.86,West,260,13.3,36.1,37,0.00,,SCT040,0.00,VWS V14.01,2013-04-16 00:49:00,
2013-04-15 17:54:00,57.5,31.5,29.86,ESE,118,9.5,36.1,37,0.00,,SCT040,0.00,VWS V14.01,2013-04-16 00:54:00,
2013-04-15 17:59:00,57.4,31.4,29.86,WNW,301,1.9,36.1,37,0.00,,SCT040,0.00,VWS V14.01,2013-04-16 00:59:00,
2013-04-15 18:04:00,57.4,32.0,29.86,West,266,5.7,20.9,38,0.00,,FEW040,0.00,VWS V14.01,2013-04-16 01:04:00,
2013-04-15 18:09:00,57.2,31.8,29.87,WNW,285,11.4,28.5,38,0.00,,FEW040,0.00,VWS V14.01,2013-04-16 01:09:00,
2013-04-15 18:14:00,57.1,31.8,29.87,NW,325,3.8,28.5,38,0.00,,FEW040,0.00,VWS V14.01,2013-04-16 01:14:00,
2013-04-15 18:19:00,57.0,31.7,29.87,WNW,282,5.7,28.5,38,0.00,,FEW040,0.00,VWS V14.01,2013-04-16 01:19:00,
2013-04-15 18:24:00,56.8,32.1,29.87,WNW,301,1.9,28.5,39,0.00,,FEW040,0.00,VWS V14.01,2013-04-16 01:24:00,
2013-04-15 18:29:00,56.7,32.0,29.87,West,270,3.8,28.5,39,0.00,,FEW040,0.00,VWS V14.01,2013-04-16 01:29:00,
2013-04-15 18:34:00,56.6,32.6,29.87,WSW,246,5.7,19.0,40,0.00,,FEW040,0.00,VWS V14.01,2013-04-16 01:34:00,
2013-04-15 18:39:00,56.8,32.8,29.87,WSW,257,11.4,26.6,40,0.00,,FEW040,0.00,VWS V14.01,2013-04-16 01:39:00,
2013-04-15 18:45:00,56.3,32.9,29.87,West,265,7.6,26.6,41,0.00,,FEW040,0.00,VWS V14.01,2013-04-16 01:45:00,
2013-04-15 18:50:00,55.7,33.0,29.87,West,262,13.3,26.6,42,0.00,,FEW040,0.00,VWS V14.01,2013-04-16 01:50:00,
2013-04-15 18:55:00,55.4,33.3,29.87,West,267,5.7,26.6,43,0.00,,FEW040,0.00,VWS V14.01,2013-04-16 01:55:00,
2013-04-15 19:00:00,55.1,33.6,29.87,West,270,3.8,9.5,44,0.00,,FEW040,0.00,VWS V14.01,2013-04-16 02:00:00,
2013-04-15 19:05:00,54.7,33.8,29.87,WNW,297,3.8,20.9,45,0.00,,FEW050,0.00,VWS V14.01,2013-04-16 02:05:00,
2013-04-15 19:10:00,54.7,33.8,29.87,NNW,330,5.7,20.9,45,0.00,,FEW050,0.00,VWS V14.01,2013-04-16 02:10:00,
2013-04-15 19:15:00,54.1,34.3,29.87,NNW,330,13.3,24.7,47,0.00,,FEW050,0.00,VWS V14.01,2013-04-16 02:15:00,
2013-04-15 19:20:00,53.7,34.0,29.88,NNE,12,5.7,24.7,47,0.00,,FEW050,0.00,VWS V14.01,2013-04-16 02:20:00,
2013-04-15 19:25:00,53.2,34.0,29.88,NW,308,13.3,24.7,48,0.00,,FEW050,0.00,VWS V14.01,2013-04-16 02:25:00,
2013-04-15 19:30:00,52.8,34.2,29.88,WNW,300,7.6,9.5,49,0.00,,FEW050,0.00,VWS V14.01,2013-04-16 02:30:00,
2013-04-15 19:35:00,52.5,34.4,29.88,WNW,289,9.5,20.9,50,0.00,,FEW050,0.00,VWS V14.01,2013-04-16 02:35:00,
2013-04-15 19:40:00,52.2,34.6,29.88,WNW,293,1.9,20.9,51,0.00,,FEW050,0.00,VWS V14.01,2013-04-16 02:40:00,
2013-04-15 19:45:00,52.0,34.5,29.88,West,270,3.8,20.9,51,0.00,,FEW050,0.00,VWS V14.01,2013-04-16 02:45:00,
2013-04-15 19:50:00,51.7,34.7,29.89,NW,314,3.8,20.9,52,0.00,,FEW050,0.00,VWS V14.01,2013-04-16 02:50:00,
2013-04-15 19:55:00,51.4,34.4,29.89,West,262,3.8,20.9,52,0.00,,FEW050,0.00,VWS V14.01,2013-04-16 02:55:00,
2013-04-15 20:00:00,51.1,34.6,29.89,West,273,3.8,5.7,53,0.00,,FEW050,0.00,VWS V14.01,2013-04-16 03:00:00,
2013-04-15 20:05:00,50.9,34.4,29.89,NNW,332,1.9,13.3,53,0.00,,CLR,0.00,VWS V14.01,2013-04-16 03:05:00,
2013-04-15 20:10:00,50.7,34.7,29.90,WNW,288,1.9,17.1,54,0.00,,CLR,0.00,VWS V14.01,2013-04-16 03:10:00,
2013-04-15 20:16:00,50.4,34.4,29.90,WNW,285,3.8,17.1,54,0.00,,CLR,0.00,VWS V14.01,2013-04-16 03:16:00,
2013-04-15 20:21:00,50.2,34.7,29.90,WNW,295,3.8,17.1,55,0.00,,CLR,0.00,VWS V14.01,2013-04-16 03:21:00,
2013-04-15 20:26:00,50.0,34.5,29.91,West,277,3.8,17.1,55,0.00,,CLR,0.00,VWS V14.01,2013-04-16 03:26:00,
2013-04-15 20:31:00,49.9,34.8,29.91,West,267,1.9,11.4,56,0.00,,CLR,0.00,VWS V14.01,2013-04-16 03:31:00,
2013-04-15 20:36:00,49.7,34.7,29.91,West,277,3.8,11.4,56,0.00,,CLR,0.00,VWS V14.01,2013-04-16 03:36:00,
2013-04-15 20:41:00,49.7,35.1,29.91,West,274,0.0,17.1,57,0.00,,CLR,0.00,VWS V14.01,2013-04-16 03:41:00,
2013-04-15 20:46:00,49.6,35.0,29.91,WNW,285,5.7,17.1,57,0.00,,CLR,0.00,VWS V14.01,2013-04-16 03:46:00,
2013-04-15 20:51:00,49.6,35.0,29.91,West,273,11.4,17.1,57,0.00,,CLR,0.00,VWS V14.01,2013-04-16 03:51:00,
2013-04-15 20:56:00,49.5,34.9,29.91,WSW,256,1.9,19.0,57,0.00,,CLR,0.00,VWS V14.01,2013-04-16 03:56:00,
2013-04-15 21:00:00,49.4,35.3,29.92,West,278,0.0,5.7,58,0.00,,CLR,0.00,VWS V14.01,2013-04-16 04:00:00,
2013-04-15 21:01:00,49.3,35.2,29.91,West,271,0.0,5.7,58,0.00,,CLR,0.00,VWS V14.01,2013-04-16 04:01:00,
2013-04-15 21:02:00,49.3,35.2,29.92,West,277,3.8,7.6,58,0.00,,CLR,0.00,VWS V14.01,2013-04-16 04:02:00,
2013-04-15 21:06:00,49.3,35.2,29.92,NW,308,3.8,11.4,58,0.00,,CLR,0.00,VWS V14.01,2013-04-16 04:06:00,
2013-04-15 21:08:00,49.2,35.1,29.92,NW,305,3.8,17.1,58,0.00,,CLR,0.00,VWS V14.01,2013-04-16 04:08:00,
2013-04-15 21:13:00,49.2,35.1,29.92,West,264,9.5,17.1,58,0.00,,CLR,0.00,VWS V14.01,2013-04-16 04:13:00,
2013-04-15 21:18:00,49.1,35.0,29.92,WSW,240,0.0,17.1,58,0.00,,CLR,0.00,VWS V14.01,2013-04-16 04:18:00,
2013-04-15 21:23:00,48.9,34.8,29.93,North,4,11.4,17.1,58,0.00,,CLR,0.00,VWS V14.01,2013-04-16 04:23:00,
2013-04-15 21:28:00,48.8,35.1,29.93,West,274,5.7,17.1,59,0.00,,CLR,0.00,VWS V14.01,2013-04-16 04:28:00,
2013-04-15 21:34:00,48.6,34.9,29.93,West,259,3.8,15.2,59,0.00,,CLR,0.00,VWS V14.01,2013-04-16 04:34:00,
2013-04-15 21:39:00,48.5,34.8,29.93,WSW,256,1.9,15.2,59,0.00,,CLR,0.00,VWS V14.01,2013-04-16 04:39:00,
2013-04-15 21:44:00,48.3,34.7,29.94,West,267,5.7,15.2,59,0.00,,CLR,0.00,VWS V14.01,2013-04-16 04:44:00,
2013-04-15 21:49:00,48.2,34.6,29.94,NW,307,5.7,17.1,59,0.00,,CLR,0.00,VWS V14.01,2013-04-16 04:49:00,
2013-04-15 21:54:00,48.0,34.4,29.94,NW,314,1.9,17.1,59,0.00,,CLR,0.00,VWS V14.01,2013-04-16 04:54:00,
2013-04-15 21:59:00,47.9,34.3,29.95,NNW,342,5.7,17.1,59,0.00,,CLR,0.00,VWS V14.01,2013-04-16 04:59:00,
2013-04-15 22:05:00,47.7,34.5,29.95,West,269,1.9,19.0,60,0.00,,CLR,0.00,VWS V14.01,2013-04-16 05:05:00,
2013-04-15 22:10:00,47.5,34.3,29.95,NNE,32,3.8,19.0,60,0.00,,CLR,0.00,VWS V14.01,2013-04-16 05:10:00,
2013-04-15 22:15:00,47.5,34.3,29.95,WNW,287,7.6,19.0,60,0.00,,CLR,0.00,VWS V14.01,2013-04-16 05:15:00,
2013-04-15 22:20:00,47.4,34.2,29.95,WNW,283,1.9,19.0,60,0.00,,CLR,0.00,VWS V14.01,2013-04-16 05:20:00,
2013-04-15 22:25:00,47.2,34.0,29.95,West,269,1.9,19.0,60,0.00,,CLR,0.00,VWS V14.01,2013-04-16 05:25:00,
2013-04-15 22:30:00,47.1,34.4,29.96,SSW,195,1.9,5.7,61,0.00,,CLR,0.00,VWS V14.01,2013-04-16 05:30:00,
2013-04-15 22:35:00,47.0,34.3,29.96,NW,311,1.9,7.6,61,0.00,,CLR,0.00,VWS V14.01,2013-04-16 05:35:00,
2013-04-15 22:40:00,46.8,34.1,29.96,West,272,0.0,15.2,61,0.00,,CLR,0.00,VWS V14.01,2013-04-16 05:40:00,
2013-04-15 22:45:00,46.7,34.0,29.96,NNW,337,3.8,15.2,61,0.00,,CLR,0.00,VWS V14.01,2013-04-16 05:45:00,
2013-04-15 22:50:00,46.7,34.0,29.96,West,267,1.9,15.2,61,0.00,,CLR,0.00,VWS V14.01,2013-04-16 05:50:00,
2013-04-15 22:55:00,46.5,33.8,29.96,WSW,243,0.0,15.2,61,0.00,,CLR,0.00,VWS V14.01,2013-04-16 05:55:00,
2013-04-15 23:00:00,46.4,34.1,29.96,WSW,252,3.8,5.7,62,0.00,,CLR,0.00,VWS V14.01,2013-04-16 06:00:00,
2013-04-15 23:06:00,46.2,33.9,29.96,WNW,295,0.0,5.7,62,0.00,,CLR,0.00,VWS V14.01,2013-04-16 06:06:00,
2013-04-15 23:11:00,45.9,33.6,29.96,SW,224,0.0,5.7,62,0.00,,CLR,0.00,VWS V14.01,2013-04-16 06:11:00,
2013-04-15 23:16:00,45.9,33.6,29.97,WNW,301,3.8,7.6,62,0.00,,CLR,0.00,VWS V14.01,2013-04-16 06:16:00,
2013-04-15 23:21:00,45.8,33.5,29.97,WSW,257,0.0,7.6,62,0.00,,CLR,0.00,VWS V14.01,2013-04-16 06:21:00,
2013-04-15 23:26:00,45.7,33.8,29.97,WNW,287,1.9,7.6,63,0.00,,CLR,0.00,VWS V14.01,2013-04-16 06:26:00,
2013-04-15 23:31:00,45.6,33.3,29.97,WSW,243,0.0,1.9,62,0.00,,CLR,0.00,VWS V14.01,2013-04-16 06:31:00,
2013-04-15 23:36:00,45.2,33.4,29.97,West,278,0.0,1.9,63,0.00,,CLR,0.00,VWS V14.01,2013-04-16 06:36:00,
2013-04-15 23:41:00,45.2,33.4,29.97,West,259,1.9,9.5,63,0.00,,CLR,0.00,VWS V14.01,2013-04-16 06:41:00,
2013-04-15 23:46:00,45.3,33.5,29.97,SW,233,0.0,9.5,63,0.00,,CLR,0.00,VWS V14.01,2013-04-16 06:46:00,
2013-04-15 23:51:00,45.3,33.5,29.97,West,259,7.6,13.3,63,0.00,,CLR,0.00,VWS V14.01,2013-04-16 06:51:00,
2013-04-15 23:56:00,45.3,33.5,29.97,NNW,345,3.8,13.3,63,0.00,,CLR,0.00,VWS V14.01,2013-04-16 06:56:00,